Location: Stoke Bliss
(52.2667°N, 2.5167°W)
Time: 01:40:19
(UTC+00:00)

Envisat - Visible Passes

Search period start: 02 December 2021 00:00
Search period end: 12 December 2021 00:00
Orbit: 764 x 766 km, 98.2° (Epoch: 01 December)

Date Brightness Start Highest point End Pass type
(mag) Time Alt. Az. Time Alt. Az. Time Alt. Az.
02 Dec 3.5 05:06:28 10° NNE 05:11:31 60° E 05:16:32 10° S visible
02 Dec 3.9 06:46:04 10° N 06:50:13 26° WNW 06:54:21 10° WSW visible
03 Dec 4.7 04:29:56 10° NNE 04:34:26 31° E 04:38:56 10° SSE visible
03 Dec 3.2 06:08:47 10° N 06:13:38 46° WNW 06:18:28 10° SW visible
03 Dec 5.8 17:30:44 10° SW 17:34:27 20° W 17:38:12 10° NW visible
04 Dec 5.7 03:53:59 10° NE 03:57:09 16° E 04:00:17 10° SE visible
04 Dec 2.9 05:31:45 10° NNE 05:36:52 87° WNW 05:41:58 10° SSW visible
04 Dec 4.3 07:11:53 10° NNW 07:15:13 18° NW 07:18:32 10° W visible
04 Dec 4.6 16:52:30 10° SSW 16:57:14 38° W 17:02:00 10° NNW visible
05 Dec 3.9 04:54:58 10° NNE 04:59:55 49° E 05:04:50 10° S visible
05 Dec 3.7 06:34:20 10° N 06:38:45 31° WNW 06:43:09 10° WSW visible
05 Dec 6.1 17:57:58 10° WSW 18:00:08 13° W 18:02:19 10° WNW visible
06 Dec 5.0 04:18:33 10° NE 04:22:46 26° E 04:26:58 10° SSE visible
06 Dec 3.0 05:57:09 10° N 06:02:08 56° WNW 06:07:05 10° SW visible
06 Dec 5.5 17:18:38 10° SW 17:22:46 25° W 17:26:55 10° NW visible
07 Dec 5.9 03:43:02 10° NE 03:45:25 13° E 03:47:47 10° ESE visible
07 Dec 3.1 05:20:11 10° NNE 05:25:19 78° ESE 05:30:24 10° S visible
07 Dec 4.2 07:00:04 10° N 07:03:48 21° NW 07:07:31 10° WSW visible
07 Dec 4.2 16:40:43 10° S 16:45:37 47° W 16:50:32 10° NNW visible
08 Dec 4.2 04:43:30 10° NNE 04:48:18 40° E 04:53:04 10° SSE visible
08 Dec 3.5 06:22:39 10° N 06:27:17 36° WNW 06:31:54 10° SW visible
08 Dec 5.9 17:45:24 10° WSW 17:48:24 16° W 17:51:25 10° NW visible
09 Dec 5.3 04:07:15 10° NE 04:11:05 21° E 04:14:54 10° SE visible
09 Dec 2.9 05:45:32 10° N 05:50:36 68° WNW 05:55:39 10° SSW visible
09 Dec 4.5 07:26:05 10° NNW 07:28:45 14° NW 07:31:25 10° W visible
09 Dec 5.1 17:06:39 10° SSW 17:11:06 30° W 17:15:34 10° NNW visible
10 Dec 6.1 03:32:44 10° ENE 03:33:40 10° E 03:34:36 10° E visible
10 Dec 3.4 05:08:39 10° NNE 05:13:43 64° ESE 05:18:46 10° S visible
10 Dec 4.0 06:48:18 10° N 06:52:22 25° WNW 06:56:25 10° WSW visible
10 Dec 3.8 16:29:00 10° S 16:34:00 58° W 16:39:02 10° NNW visible
11 Dec 4.6 04:32:04 10° NNE 04:36:39 33° E 04:41:13 10° SSE visible
11 Dec 3.3 06:10:59 10° N 06:15:49 44° WNW 06:20:36 10° SW visible
11 Dec 5.8 17:33:06 10° SW 17:36:41 19° W 17:40:17 10° NW visible
